Weather History for Fort Myers, FL

Change the Weather History Date:

Wednesday, March 27, 2013

  Actual Average Record
Temperature  
Mean Temperature 55 °F 71 °F  
Max Temperature 66 °F 82 °F 91 °F (1950)
Min Temperature 44 °F 61 °F 44 °F (2013)
Degree Days  
Heating Degree Days 10 0  
Month to date heating degree days 78 21  
Since 1 July heating degree days 194 281  
Cooling Degree Days 0 7  
Month to date cooling degree days 65 149  
Year to date cooling degree days 376 334  
Growing Degree Days 5 (Base 50)    
Moisture  
Dew Point 34 °F    
Average Humidity 49    
Maximum Humidity 65    
Minimum Humidity 27    
Precipitation  
Precipitation 0.00 in 0.09 in 1.35 in (1937)
Month to date precipitation 0.78 2.54  
Year to date precipitation 3.26 6.63  
Sea Level Pressure  
Sea Level Pressure 30.26 in    
Wind  
Wind Speed 9 mph (North)    
Max Wind Speed 16 mph    
Max Gust Speed 21 mph    
Visibility 10 miles    
Events      
T = Trace of Precipitation, MM = Missing Value Source: NWS Daily Summary

Daily Weather History Graph

Daily Weather History Graph

Search for Another Location

Airport:

Trip Planner

Search our weather history database for the weather conditions in past years. The results will help you decide how hot, cold, wet, or windy it might be!

Date:

Astronomy

Mar. 27, 2013 Rise Set
Actual Time 7:23 AM EDT 7:42 PM EDT
Civil Twilight 7:00 AM EDT 8:05 PM EDT
Nautical Twilight 6:33 AM EDT 8:32 PM EDT
Astronomical Twilight 6:05 AM EDT 8:59 PM EDT
Moon 8:16 PM EDT (3/27) 7:18 AM EDT (3/27)
Length of Visible Light 13h 05m
Length of Day
12h 18m
Full, 100% of the Moon is Illuminated
Mar 27
Full
Apr 3
Last Quarter
Apr 10
New
Apr 18
First Quarter
Apr 25
Full

Hourly Weather History & Observations

Time (EDT) Temp. Windchill Dew Point Humidity Pressure Visibility Wind Dir Wind Speed Gust Speed Precip Events Conditions
12:53 AM 50.0 °F - 36.0 °F 59% 30.26 in 10.0 mi North 11.5 mph - N/A   Clear
1:53 AM 48.0 °F - 35.1 °F 61% 30.25 in 10.0 mi North 5.8 mph - N/A   Clear
2:53 AM 46.9 °F - 36.0 °F 66% 30.24 in 10.0 mi North 4.6 mph - N/A   Clear
3:53 AM 46.9 °F - 35.1 °F 63% 30.23 in 10.0 mi North 6.9 mph - N/A   Clear
4:53 AM 46.9 °F - 34.0 °F 61% 30.23 in 10.0 mi NNE 9.2 mph - N/A   Clear
5:53 AM 46.0 °F 41.4 °F 32.0 °F 58% 30.24 in 10.0 mi NNE 9.2 mph - N/A   Clear
6:53 AM 44.1 °F 39.5 °F 32.0 °F 63% 30.26 in 10.0 mi NNE 8.1 mph - N/A   Clear
7:53 AM 45.0 °F 40.6 °F 33.1 °F 63% 30.28 in 10.0 mi NNE 8.1 mph - N/A   Clear
8:53 AM 48.9 °F - 32.0 °F 52% 30.30 in 10.0 mi NE 10.4 mph - N/A   Clear
9:53 AM 53.1 °F - 28.9 °F 40% 30.32 in 10.0 mi NE 12.7 mph - N/A   Clear
10:53 AM 55.9 °F - 28.9 °F 36% 30.32 in 10.0 mi NNE 15.0 mph 18.4 mph N/A   Clear
11:53 AM 57.9 °F - 28.9 °F 33% 30.31 in 10.0 mi NNW 10.4 mph - N/A   Clear
12:53 PM 61.0 °F - 28.9 °F 30% 30.29 in 10.0 mi NNE 8.1 mph - N/A   Clear
1:53 PM 63.0 °F - 28.9 °F 28% 30.27 in 10.0 mi NE 5.8 mph - N/A   Clear
2:53 PM 64.9 °F - 30.0 °F 27% 30.25 in 10.0 mi North 9.2 mph - N/A   Clear
3:53 PM 66.0 °F - 34.0 °F 30% 30.22 in 10.0 mi WNW 11.5 mph 19.6 mph N/A   Clear
4:53 PM 64.0 °F - 36.0 °F 35% 30.21 in 10.0 mi NW 13.8 mph - N/A   Clear
5:53 PM 63.0 °F - 39.0 °F 41% 30.22 in 10.0 mi NW 12.7 mph - N/A   Clear
6:53 PM 61.0 °F - 42.1 °F 50% 30.23 in 10.0 mi WNW 9.2 mph - N/A   Clear
7:53 PM 57.0 °F - 43.0 °F 59% 30.23 in 10.0 mi NW 10.4 mph - N/A   Clear
8:53 PM 55.9 °F - 42.1 °F 60% 30.25 in 10.0 mi NW 6.9 mph - N/A   Clear
9:53 PM 55.0 °F - 37.0 °F 51% 30.26 in 10.0 mi NNW 10.4 mph - N/A   Clear
10:53 PM 53.1 °F - 35.1 °F 50% 30.27 in 10.0 mi North 6.9 mph - N/A   Clear
11:53 PM 51.1 °F - 35.1 °F 54% 30.27 in 10.0 mi North 8.1 mph - N/A   Clear